Regional Weather Roundup
Issued by NWS

Home | Current Version | Previous Version | Text Only | Print | Product List | Glossary On
Versions: 1 2 3 4 5 6 7 8 9 10 11 12 13 14 15 16 17 18 19 20 21 22 23 24 25 26 27 28 29 30 31 32 33 34 35 36 37 38 39 40 41 42 43 44 45 46 47 48 49 50
000
ASUS43 KFSD 210310
RWRSD

WEATHER ROUNDUP FOR SOUTH DAKOTA
NATIONAL WEATHER SERVICE SIOUX FALLS SD
1000 PM CDT SUN APR 20 2014

NOTE: "FAIR" INDICATES FEW OR NO CLOUDS BELOW 12,000 FEET WITH NO
SIGNIFICANT WEATHER AND/OR OBSTRUCTIONS TO VISIBILITY.


SDZ001>005-009-010-012>017-210400-
NORTHWEST AND NORTH CENTRAL SOUTH DAKOTA

CITY           SKY/WX    TMP DP  RH WIND       PRES   REMARKS
BUFFALO          N/A     51  20  29 NW15      30.03R
FAITH            N/A     50  28  42 N9        30.04R
MOBRIDGE       CLEAR     55  28  35 N13       29.96R
$$

SDZ012>016-024>037-041>051-057-063-072>074-210400-
SOUTHWEST AND SOUTH CENTRAL SOUTH DAKOTA

CITY           SKY/WX    TMP DP  RH WIND       PRES   REMARKS
RAPID CTY ARPT CLEAR     51  31  46 N12       30.07R
PIERRE         PTCLDY    63  35  35 N21       29.93R
CUSTER         CLEAR     50  26  39 N13G22    30.12R
ELLSWORTH AFB  CLEAR     55  30  37 N12       30.07R
PHILIP         CLEAR     60  29  30 N17       30.00R
PINE RIDGE     CLEAR     58  30  34 N15G25    30.03R
SPEARFISH      FAIR      52  25  35 NW7       30.14R
WINNER         FAIR      64  45  49 N10       29.89R
$$

SDZ004>011-016>023-039-040-210400-
NORTHEAST SOUTH DAKOTA

CITY           SKY/WX    TMP DP  RH WIND       PRES   REMARKS
ABERDEEN       MOCLDY    55  33  43 CALM      29.90R
WATERTOWN      CLEAR     61  38  42 E8        29.91R
SISSETON         N/A     53  38  56 S7        29.90R
$$

SDZ017-020-022-023-036>040-048>070-210400-
SOUTHEAST SOUTH DAKOTA

CITY           SKY/WX    TMP DP  RH WIND       PRES   REMARKS
SIOUX FALLS    MOCLDY    62  49  62 CALM      29.88R
HURON          PTCLDY    62  45  53 E6        29.86R
CHAMBERLAIN      N/A     63  51  65 E10       29.88R
MITCHELL       PTCLDY    67  45  45 SE5       29.86R
YANKTON        PTCLDY    68  48  49 S9        29.89R
$$

ABBREVIATIONS USED IN REMARKS
   TC - TEMPERATURE IN CELSIUS
  WCI - WIND CHILL INDEX
   HX - HEAT INDEX
  VSB - VISIBILITY




USA.gov is the U.S. government's official web portal to all federal, state and local government web resources and services.